Date String (YYYY-MM-DD hh:mm:ss) UTC,Instrument flags,absolute air pressure of the measurement (hPa),sample flow rate (lpm),inlet stack bypass flow (lpm),air temperature of the measurement (°C),ambient temperature measured by the external sensor (°C),aerosol sample conditioner tube jacket temperature (°C),OPC LED temperature (°C),internal box temperature (°C),relative humidity of the measurement (%),span deviation,mass concentration of particles derived from Lorenz-Mie calculation of OPC scattering (μg/m³),mass concentration of particles derived from Lorenz-Mie calculation of OPC scattering (μg/m³),mass concentration of particles derived from Lorenz-Mie calculation of OPC scattering (μg/m³)
DateTimeUTC,F1_M11,P_M11,Q1_M11,Q2_M11,T1_M11,T2_M11,T3_M11,T4_M11,T5_M11,U1_M11,ZSPAN_M11,X0_M11,X2_M11,X1_M11
2024-03-05 12:00:00,SystemResetWarning,0827.6,4.99,000.00,018.4,017.8,000.0,027.0,020.1,14.1,0000.0,0003.82,0001.33,0000.74
2024-03-05 12:01:00,SystemResetWarning,0827.8,5.00,000.00,018.4,017.7,000.0,026.9,020.0,14.1,0000.0,0003.83,0001.34,0000.73
2024-03-05 12:02:00,SystemResetWarning,0827.8,5.00,000.00,018.3,017.6,000.0,026.9,020.0,14.2,0000.0,0004.58,0001.31,0000.74
2024-03-05 12:03:00,SystemResetWarning,0827.8,5.00,000.00,018.3,017.6,000.0,027.0,020.0,14.3,0000.0,0004.91,0001.29,0000.73
2024-03-05 12:04:00,SystemResetWarning,0827.7,5.00,000.00,018.3,017.5,000.0,027.0,020.0,14.3,0000.0,0004.66,0001.23,0000.72
2024-03-05 12:05:00,SystemResetWarning,0827.7,4.99,000.00,018.3,017.5,000.0,026.9,020.0,14.3,0000.0,0004.50,0001.23,0000.73
2024-03-05 12:06:00,SystemResetWarning,0827.7,4.99,000.00,018.3,017.7,000.0,027.0,020.2,14.3,0000.0,0004.55,0001.26,0000.73
2024-03-05 12:07:00,SystemResetWarning,0827.7,5.01,000.00,018.5,018.5,000.0,027.1,020.6,14.2,0000.0,0004.20,0001.25,0000.74
2024-03-05 12:08:00,SystemResetWarning,0827.7,5.00,000.00,018.7,018.8,000.0,027.1,020.8,14.0,0000.0,0003.80,0001.22,0000.74
2024-03-05 12:09:00,SystemResetWarning,0827.7,4.99,000.00,018.7,018.7,000.0,027.1,020.7,14.0,0000.0,0003.81,0001.23,0000.74
2024-03-05 12:10:00,SystemResetWarning,0827.7,5.01,000.00,018.7,018.5,000.0,027.0,020.5,14.0,0000.0,0003.99,0001.25,0000.75
2024-03-05 12:11:00,SystemResetWarning,0827.8,5.01,000.00,018.6,018.4,000.0,027.0,020.4,14.0,0000.0,0004.06,0001.27,0000.74
2024-03-05 12:12:00,SystemResetWarning,0827.8,5.00,000.00,018.6,018.2,000.0,027.0,020.4,14.1,0000.0,0004.29,0001.26,0000.74
2024-03-05 12:13:00,SystemResetWarning,0827.8,5.00,000.00,018.6,018.1,000.0,027.0,020.3,14.1,0000.0,0004.07,0001.27,0000.73
2024-03-05 12:14:00,SystemResetWarning,0827.8,4.99,000.00,018.5,018.1,000.0,027.0,020.2,14.1,0000.0,0003.30,0001.26,0000.73
2024-03-05 12:15:00,SystemResetWarning,0827.7,5.00,000.00,018.5,018.0,000.0,027.0,020.1,14.1,0000.0,0003.85,0001.31,0000.73
2024-03-05 12:16:00,SystemResetWarning,0827.7,5.01,000.00,018.5,017.9,000.0,027.0,020.1,14.2,0000.0,0004.09,0001.30,0000.73
2024-03-05 12:17:00,SystemResetWarning,0827.7,5.01,000.00,018.4,017.8,000.0,026.9,020.0,14.2,0000.0,0003.97,0001.26,0000.71
2024-03-05 12:18:00,SystemResetWarning,0827.7,4.99,000.00,018.4,017.7,000.0,027.0,020.0,14.2,0000.0,0003.94,0001.24,0000.71
2024-03-05 12:19:00,SystemResetWarning,0827.7,4.99,000.00,018.4,017.7,000.0,027.0,020.0,14.2,0000.0,0004.32,0001.27,0000.72
2024-03-05 12:20:00,SystemResetWarning,0827.7,5.01,000.00,018.3,017.6,000.0,027.0,020.0,14.2,0000.0,0004.80,0001.28,0000.72
2024-03-05 12:21:00,SystemResetWarning,0827.7,5.00,000.00,018.3,017.6,000.0,027.0,020.0,14.2,0000.0,0004.60,0001.21,0000.73
2024-03-05 12:22:00,SystemResetWarning,0827.7,5.01,000.00,018.3,017.5,000.0,027.0,020.0,14.2,0000.0,0004.61,0001.24,0000.73
2024-03-05 12:23:00,SystemResetWarning,0827.7,5.01,000.00,018.3,017.5,000.0,027.0,020.0,14.3,0000.0,0005.18,0001.28,0000.74
2024-03-05 12:24:00,SystemResetWarning,0827.7,5.01,000.00,018.3,017.5,000.0,027.0,020.0,14.3,0000.0,0005.58,0001.31,0000.74
2024-03-05 12:25:00,SystemResetWarning,0827.8,5.00,000.00,018.3,017.5,000.0,027.0,020.0,14.3,0000.0,0005.96,0001.30,0000.75
2024-03-05 12:26:00,SystemResetWarning,0827.8,5.00,000.00,018.3,018.0,000.0,027.0,020.3,14.3,0000.0,0006.17,0001.32,0000.76
2024-03-05 12:27:00,SystemResetWarning,0828.0,5.00,000.00,018.5,018.7,000.0,027.1,020.8,14.1,0000.0,0006.40,0001.33,0000.77
2024-03-05 12:28:00,SystemResetWarning,0828.0,5.00,000.00,018.7,018.8,000.0,027.1,020.8,14.0,0000.0,0006.44,0001.35,0000.78
2024-03-05 12:29:00,SystemResetWarning,0827.8,4.99,000.00,018.7,018.7,000.0,027.0,020.6,14.0,0000.0,0006.76,0001.35,0000.79
2024-03-05 12:30:00,SystemResetWarning,0827.7,5.00,000.00,018.6,018.5,000.0,027.0,020.5,14.0,0000.0,0006.76,0001.36,0000.78
2024-03-05 12:31:00,SystemResetWarning,0827.7,5.01,000.00,018.6,018.3,000.0,027.0,020.3,14.0,0000.0,0007.43,0001.38,0000.78
2024-03-05 12:32:00,SystemResetWarning,0827.7,5.01,000.00,018.5,018.1,000.0,027.0,020.2,14.1,0000.0,0007.82,0001.40,0000.78
2024-03-05 12:33:00,SystemResetWarning,0827.7,5.01,000.00,018.5,018.0,000.0,026.9,020.2,14.2,0000.0,0007.78,0001.37,0000.79
2024-03-05 12:34:00,SystemResetWarning,0827.7,4.98,000.00,018.5,017.9,000.0,026.9,020.1,14.2,0000.0,0007.34,0001.33,0000.79
2024-03-05 12:35:00,SystemResetWarning,0827.7,4.99,000.00,018.4,017.8,000.0,026.9,020.0,14.2,0000.0,0006.55,0001.28,0000.79
2024-03-05 12:36:00,SystemResetWarning,0827.7,5.02,000.00,018.4,017.7,000.0,027.0,020.0,14.3,0000.0,0006.82,0001.31,0000.80
2024-03-05 12:37:00,SystemResetWarning,0827.8,4.99,000.00,018.3,017.6,000.0,026.9,020.0,14.3,0000.0,0007.20,0001.27,0000.79
2024-03-05 12:38:00,SystemResetWarning,0827.8,4.99,000.00,018.3,017.6,000.0,027.0,020.0,14.3,0000.0,0006.93,0001.26,0000.79
2024-03-05 12:39:00,SystemResetWarning,0828.0,5.00,000.00,018.3,017.6,000.0,027.0,020.0,14.4,0000.0,0007.02,0001.31,0000.80
2024-03-05 12:40:00,SystemResetWarning,0827.9,5.00,000.00,018.3,017.5,000.0,027.0,020.0,14.4,0000.0,0006.91,0001.32,0000.80
2024-03-05 12:41:00,SystemResetWarning,0827.9,5.01,000.00,018.3,017.5,000.0,027.0,020.0,14.4,0000.0,0006.46,0001.31,0000.81
2024-03-05 12:42:00,SystemResetWarning,0827.8,5.01,000.00,018.3,017.5,000.0,027.0,020.0,14.4,0000.0,0005.20,0001.31,0000.82
2024-03-05 12:43:00,SystemResetWarning,0827.8,5.00,000.00,018.3,017.6,000.0,027.0,020.1,14.5,0000.0,0005.36,0001.36,0000.83
2024-03-05 12:44:00,SystemResetWarning,0827.9,4.99,000.00,018.4,018.3,000.0,027.1,020.6,14.4,0000.0,0005.71,0001.43,0000.83
2024-03-05 12:45:00,SystemResetWarning,0828.1,5.00,000.00,018.7,019.0,000.0,027.1,021.0,14.2,0000.0,0005.70,0001.45,0000.84
2024-03-05 12:46:00,SystemResetWarning,0828.0,4.99,000.00,018.7,018.9,000.0,027.1,020.8,14.1,0000.0,0005.63,0001.44,0000.85
2024-03-05 12:47:00,SystemResetWarning,0828.0,5.00,000.00,018.7,018.7,000.0,027.1,020.6,14.1,0000.0,0005.85,0001.43,0000.87
2024-03-05 12:48:00,SystemResetWarning,0828.1,5.01,000.00,018.7,018.5,000.0,027.0,020.5,14.1,0000.0,0006.58,0001.46,0000.89
2024-03-05 12:49:00,SystemResetWarning,0828.0,5.01,000.00,018.6,018.3,000.0,027.0,020.3,14.2,0000.0,0006.52,0001.49,0000.90
2024-03-05 12:50:00,SystemResetWarning,0828.1,5.00,000.00,018.6,018.2,000.0,027.0,020.2,14.2,0000.0,0006.57,0001.51,0000.92
2024-03-05 12:51:00,SystemResetWarning,0828.1,4.99,000.00,018.5,018.0,000.0,027.0,020.2,14.3,0000.0,0006.44,0001.52,0000.93
2024-03-05 12:52:00,SystemResetWarning,0828.0,5.00,000.00,018.5,017.9,000.0,027.0,020.1,14.3,0000.0,0006.85,0001.52,0000.94
2024-03-05 12:53:00,SystemResetWarning,0828.1,5.01,000.00,018.4,017.8,000.0,027.0,020.0,14.4,0000.0,0007.53,0001.52,0000.94
2024-03-05 12:54:00,SystemResetWarning,0828.1,5.01,000.00,018.4,017.7,000.0,027.0,020.0,14.4,0000.0,0008.06,0001.53,0000.96
2024-03-05 12:55:00,SystemResetWarning,0828.1,5.00,000.00,018.4,017.7,000.0,027.0,020.0,14.4,0000.0,0008.58,0001.48,0000.96
2024-03-05 12:56:00,SystemResetWarning,0828.0,5.00,000.00,018.3,017.6,000.0,027.0,020.0,14.5,0000.0,0008.88,0001.46,0000.97
2024-03-05 12:57:00,SystemResetWarning,0827.9,5.00,000.00,018.3,017.5,000.0,027.0,020.0,14.6,0000.0,0008.89,0001.47,0000.98
2024-03-05 12:58:00,SystemResetWarning,0827.8,4.99,000.00,018.3,017.5,000.0,027.0,020.0,14.6,0000.0,0008.66,0001.51,0000.99
2024-03-05 12:59:00,SystemResetWarning,0827.9,4.99,000.00,018.3,017.4,000.0,027.0,020.0,14.7,0000.0,0008.00,0001.52,0001.00
